GW3806 Weather Reports


Display with metric or nautical units.
time (UTC)temp
F
wind
direction
speed
MPH
gust
MPH
rain 1hr
in
rain 24hr
in
rain mn
in
humidity
%
barometer
mb
20260506005610 47 0 10.0 16.0 0.00 0.00 0.00 46 1009.3
20260506005107 46 358 17.0 21.0 0.00 0.00 0.00 47 1009.3
20260506004604 46 23 8.0 17.0 0.00 0.00 0.00 47 1009.6
20260506004100 48 18 11.0 16.0 0.00 0.00 0.00 47 1009.3
20260506003556 47 67 4.0 22.0 0.00 0.00 0.00 48 1009.4
20260506003053 48 17 13.0 23.0 0.00 0.00 0.00 45 1009.4
20260506002549 48 5 16.0 20.0 0.00 0.00 0.00 44 1009.6
20260506002045 49 46 11.0 19.0 0.00 0.00 0.00 45 1009.4
20260506001541 49 10 8.0 23.0 0.00 0.00 0.00 46 1009.3
20260506001039 49 351 9.0 20.0 0.00 0.00 0.00 44 1009.4
20260506000536 50 340 9.0 18.0 0.00 0.00 0.00 43 1009.2
20260506000033 49 22 10.0 24.0 0.00 0.00 0.00 43 1009.3
20260505235531 50 336 7.0 19.0 0.00 0.00 0.00 44 1009.2
20260505235028 50 5 15.0 28.0 0.00 0.00 0.00 42 1009.2
20260505234525 51 350 3.0 23.0 0.00 0.00 0.00 44 1009.1
20260505234021 50 5 10.0 15.0 0.00 0.00 0.00 42 1009.1
20260505233519 49 355 11.0 22.0 0.00 0.00 0.00 42 1009.1
20260505233017 49 0 7.0 17.0 0.00 0.00 0.00 41 1009.3
20260505232514 49 355 12.0 21.0 0.00 0.00 0.00 41 1009.2
20260505232011 50 0 3.0 6.0 0.00 0.00 0.00 43 1009.1
20260505231508 49 355 6.0 9.0 0.00 0.00 0.00 42 1009.3
20260505231007 49 352 5.0 16.0 0.00 0.00 0.00 43 1009.2
20260505230504 49 0 8.0 18.0 0.00 0.00 0.00 43 1009.1
20260505230000 50 266 3.0 3.0 0.00 0.00 0.00 40 1009.4
20260505225457 51 322 3.0 7.0 0.00 0.00 0.00 38 1009.2
20260505224953 52 335 5.0 16.0 0.00 0.00 0.00 39 1009.1
20260505224450 54 345 7.0 10.0 0.00 0.00 0.00 38 1009.1
20260505223947 52 12 11.0 17.0 0.00 0.00 0.00 39 1009.1
20260505223444 52 353 6.0 19.0 0.00 0.00 0.00 41 1009.2
20260505222940 52 356 6.0 19.0 0.00 0.00 0.00 42 1009.1
20260505222437 52 358 3.0 17.0 0.00 0.00 0.00 41 1009.0
20260505221933 51 356 12.0 24.0 0.00 0.00 0.00 41 1009.3
20260505221430 53 345 8.0 22.0 0.00 0.00 0.00 36 1009.1
20260505220927 55 326 6.0 16.0 0.00 0.00 0.00 38 1009.0
20260505220424 55 309 7.0 17.0 0.00 0.00 0.00 37 1009.0
20260505215922 55 348 2.0 24.0 0.00 0.00 0.00 35 1008.8
20260505215420 55 297 9.0 22.0 0.00 0.00 0.00 36 1008.7
20260505214918 55 282 3.0 12.0 0.00 0.00 0.00 33 1008.8
20260505214415 56 276 10.0 17.0 0.00 0.00 0.00 36 1008.8
20260505213912 55 311 10.0 24.0 0.00 0.00 0.00 36 1008.8
20260505213410 55 296 21.0 30.0 0.00 0.00 0.00 37 1008.8
20260505212906 55 289 12.0 23.0 0.00 0.00 0.00 37 1009.0
20260505212403 55 277 11.0 18.0 0.00 0.00 0.00 36 1008.8
20260505211859 56 310 2.0 13.0 0.00 0.00 0.00 38 1008.6
20260505211357 55 331 6.0 19.0 0.00 0.00 0.00 37 1008.6
20260505210853 53 284 11.0 21.0 0.00 0.00 0.00 37 1008.8
20260505210350 56 296 10.0 12.0 0.00 0.00 0.00 40 1008.7
20260505205847 54 262 7.0 23.0 0.00 0.00 0.00 39 1008.6
20260505205345 55 303 14.0 20.0 0.00 0.00 0.00 38 1008.7
20260505204842 55 297 3.0 18.0 0.00 0.00 0.00 41 1009.0
20260505204340 56 324 4.0 23.0 0.00 0.00 0.00 38 1008.8
20260505203836 53 248 7.0 9.0 0.00 0.00 0.00 37 1009.0
20260505203333 54 37 2.0 10.0 0.00 0.00 0.00 40 1009.0
20260505202829 56 280 6.0 7.0 0.00 0.00 0.00 39 1009.0
20260505202325 55 260 6.0 18.0 0.00 0.00 0.00 36 1009.0
20260505201822 56 284 10.0 15.0 0.00 0.00 0.00 39 1008.8
20260505201320 56 286 5.0 22.0 0.00 0.00 0.00 42 1009.0
20260505200818 55 320 3.0 10.0 0.00 0.00 0.00 38 1009.0
20260505200315 54 343 4.0 15.0 0.00 0.00 0.00 40 1008.8
20260505195810 55 288 12.0 19.0 0.00 0.00 0.00 36 1009.1
20260505195308 53 279 10.0 17.0 0.00 0.00 0.00 38 1008.8
20260505194805 52 222 3.0 16.0 0.00 0.00 0.00 36 1009.0
20260505194302 56 332 3.0 13.0 0.00 0.00 0.00 39 1008.8
20260505193757 54 285 5.0 8.0 0.00 0.00 0.00 37 1009.0
20260505193255 55 254 2.0 17.0 0.00 0.00 0.00 38 1009.0
20260505192753 55 41 2.0 11.0 0.00 0.00 0.00 38 1009.0
20260505192251 54 359 6.0 14.0 0.00 0.00 0.00 42 1008.8
20260505191748 53 328 11.0 11.0 0.00 0.00 0.00 38 1008.8
20260505191247 55 309 3.0 9.0 0.00 0.00 0.00 38 1009.0
20260505190742 54 250 5.0 13.0 0.00 0.00 0.00 43 1009.0
20260505190237 54 298 8.0 13.0 0.00 0.00 0.00 39 1009.0
20260505185734 55 295 10.0 15.0 0.00 0.00 0.00 40 1009.0
20260505185231 52 0 6.0 16.0 0.00 0.00 0.00 38 1009.1
20260505184727 55 348 8.0 11.0 0.00 0.00 0.00 41 1009.1
20260505184224 55 334 7.0 14.0 0.00 0.00 0.00 41 1008.8
20260505183721 53 291 11.0 13.0 0.00 0.00 0.00 42 1008.7
20260505183219 55 0 5.0 11.0 0.00 0.00 0.00 40 1009.0
20260505182714 54 292 7.0 17.0 0.00 0.00 0.00 42 1008.8
20260505182212 55 346 2.0 13.0 0.00 0.00 0.00 41 1008.7
20260505181708 55 304 5.0 12.0 0.00 0.00 0.00 39 1008.7
20260505181206 55 307 5.0 10.0 0.00 0.00 0.00 38 1008.8
20260505180702 54 307 4.0 8.0 0.00 0.00 0.00 42 1009.0
20260505180159 55 295 2.0 8.0 0.00 0.00 0.00 40 1009.1
20260505175655 53 206 3.0 4.0 0.00 0.00 0.00 38 1009.0
20260505175151 53 295 6.0 9.0 0.00 0.00 0.00 37 1009.1
20260505174648 53 281 0.0 7.0 0.00 0.00 0.00 38 1009.0
20260505174144 53 238 4.0 11.0 0.00 0.00 0.00 42 1009.1
20260505173641 52 208 2.0 7.0 0.00 0.00 0.00 42 1009.1
20260505173138 52 141 2.0 7.0 0.00 0.00 0.00 40 1009.1
20260505172635 52 159 4.0 5.0 0.00 0.00 0.00 39 1009.3
20260505172131 53 270 2.0 5.0 0.00 0.00 0.00 44 1009.0
20260505171626 52 208 2.0 5.0 0.00 0.00 0.00 40 1009.1
20260505171124 51 359 5.0 7.0 0.00 0.00 0.00 43 1009.2
20260505170621 53 343 3.0 5.0 0.00 0.00 0.00 44 1009.1
20260505170117 52 2 4.0 6.0 0.00 0.00 0.00 42 1009.2
20260505165612 52 294 2.0 5.0 0.00 0.00 0.00 44 1009.3
20260505165108 52 275 2.0 10.0 0.00 0.00 0.00 44 1009.2
20260505164604 52 270 0.0 4.0 0.00 0.00 0.00 45 1009.4
20260505164102 52 288 5.0 40.0 0.00 0.00 0.00 49 1009.2
20260505163600 51 188 4.0 9.0 0.00 0.00 0.00 44 1009.4
20260505163057 50 212 1.0 5.0 0.00 0.00 0.00 46 1009.6
20260505162549 51 131 2.0 7.0 0.00 0.00 0.00 51 1009.6
20260505162046 50 190 4.0 4.0 0.00 0.00 0.00 51 1009.4
20260505161543 48 286 0.0 7.0 0.00 0.00 0.00 54 1009.6
20260505161041 49 200 5.0 9.0 0.00 0.00 0.00 63 1009.6
20260505160538 48 176 2.0 7.0 0.00 0.00 0.00 60 1009.3
20260505153015 48 276 3.0 4.0 0.00 0.00 0.00 57 1009.6
20260505152512 47 194 1.0 4.0 0.00 0.00 0.00 59 1009.7
20260505152007 47 239 2.0 5.0 0.00 0.00 0.00 60 1009.7
20260505151502 46 255 5.0 5.0 0.00 0.00 0.00 62 1009.7
20260505151000 46 130 2.0 5.0 0.00 0.00 0.00 62 1009.7
20260505150456 46 225 2.0 5.0 0.00 0.00 0.00 63 1009.7
20260505140427 42 147 6.0 7.0 0.00 0.00 0.00 69 1009.7
20260505124840 36 153 3.0 9.0 0.00 0.00 0.00 78 1009.3
20260505124337 36 161 4.0 6.0 0.00 0.00 0.00 78 1009.3
20260505123833 35 134 7.0 8.0 0.00 0.00 0.00 79 1009.2
20260505123330 35 131 6.0 12.0 0.00 0.00 0.00 78 1009.0
20260505122826 36 154 5.0 9.0 0.00 0.00 0.00 77 1009.1
20260505122323 36 135 7.0 9.0 0.00 0.00 0.00 76 1009.0
20260505121820 37 142 7.0 9.0 0.00 0.00 0.00 75 1009.0
20260505121317 38 198 7.0 10.0 0.00 0.00 0.00 73 1009.2
20260505120813 38 180 3.0 5.0 0.00 0.00 0.00 73 1009.0
20260505120309 38 212 1.0 4.0 0.00 0.00 0.00 74 1009.0
20260505115808 39 171 3.0 8.0 0.00 0.00 0.00 74 1008.8
20260505115306 39 150 5.0 8.0 0.00 0.00 0.00 72 1009.0
20260505114803 40 147 4.0 11.0 0.00 0.00 0.00 71 1009.0
20260505114259 40 157 8.0 11.0 0.00 0.00 0.00 71 1009.1
20260505113756 40 129 6.0 13.0 0.00 0.00 0.00 71 1008.8
20260505113252 39 123 10.0 11.0 0.00 0.00 0.00 72 1008.8
20260505112748 39 122 5.0 10.0 0.00 0.00 0.00 73 1009.0
20260505112246 39 143 7.0 13.0 0.00 0.00 0.00 74 1009.1
20260505111741 39 157 7.0 11.0 0.00 0.00 0.00 74 1009.1
20260505111237 39 139 5.0 9.0 0.00 0.00 0.00 75 1009.2
20260505110733 39 167 6.0 9.0 0.00 0.00 0.00 76 1009.1
20260505110231 39 117 4.0 9.0 0.00 0.00 0.00 75 1009.2
20260505102207 41 159 5.0 9.0 0.00 0.00 0.00 74 1008.8
20260505101705 42 166 7.0 12.0 0.00 0.00 0.00 74 1008.8
20260505101201 42 168 9.0 20.0 0.00 0.00 0.00 73 1008.7
20260505100657 42 182 13.0 17.0 0.00 0.00 0.00 74 1009.0
20260505100154 42 203 8.0 10.0 0.00 0.00 0.00 73 1008.8
20260505095650 42 211 4.0 11.0 0.00 0.00 0.00 74 1009.0
20260505095148 42 168 3.0 9.0 0.00 0.00 0.00 74 1009.0
20260505094643 42 199 5.0 13.0 0.00 0.00 0.00 74 1008.6
20260505094140 42 182 6.0 13.0 0.00 0.00 0.00 74 1008.6
20260505093636 42 206 6.0 11.0 0.00 0.00 0.00 75 1008.7
20260505093134 42 191 5.0 14.0 0.00 0.00 0.00 75 1008.7
20260505092630 42 200 6.0 10.0 0.00 0.00 0.00 75 1008.8
20260505092130 42 165 7.0 12.0 0.00 0.00 0.00 75 1009.1
20260505091626 42 178 3.0 11.0 0.00 0.00 0.00 75 1009.2
20260505091124 42 172 3.0 9.0 0.00 0.00 0.00 76 1009.0
20260505090621 42 206 3.0 10.0 0.00 0.00 0.00 76 1008.7
20260505090119 42 181 5.0 10.0 0.00 0.00 0.00 75 1009.0
20260505085616 42 180 5.0 17.0 0.00 0.00 0.00 74 1009.1
20260505085115 42 147 6.0 11.0 0.00 0.00 0.00 75 1008.8
20260505084612 42 197 5.0 12.0 0.00 0.00 0.00 75 1008.8
20260505084110 42 160 4.0 9.0 0.00 0.00 0.00 75 1008.8
20260505083608 43 164 4.0 9.0 0.00 0.00 0.00 74 1008.7
20260505083104 43 167 8.0 11.0 0.00 0.00 0.00 73 1009.0
20260505082559 43 179 6.0 11.0 0.00 0.00 0.00 73 1008.7
20260505082057 43 195 5.0 9.0 0.00 0.00 0.00 74 1008.7
20260505081553 43 165 6.0 9.0 0.00 0.00 0.00 75 1008.6
20260505081050 43 161 6.0 9.0 0.00 0.00 0.00 76 1008.7
20260505080546 43 170 4.0 6.0 0.00 0.00 0.00 76 1009.1
20260505080043 43 156 3.0 6.0 0.00 0.00 0.00 75 1009.1
20260505075539 43 180 2.0 6.0 0.00 0.00 0.00 77 1009.0
20260505075036 44 157 5.0 6.0 0.00 0.00 0.00 76 1009.0
20260505074533 44 191 3.0 5.0 0.00 0.00 0.00 76 1009.0
20260505074030 44 200 3.0 3.0 0.00 0.00 0.00 76 1009.2
20260505073528 44 192 1.0 2.0 0.00 0.00 0.00 75 1009.1
20260505073026 44 200 1.0 2.0 0.00 0.00 0.00 75 1009.2
20260505072521 44 154 1.0 3.0 0.00 0.00 0.00 76 1009.1
20260505072018 44 162 2.0 4.0 0.00 0.00 0.00 75 1009.1
20260505071513 44 169 3.0 5.0 0.00 0.00 0.00 75 1009.1
20260505071012 44 154 1.0 3.0 0.00 0.00 0.00 75 1009.3
20260505070509 44 133 3.0 4.0 0.00 0.00 0.00 74 1009.4
20260505070005 45 158 5.0 5.0 0.00 0.00 0.00 74 1009.2
20260505065501 44 152 2.0 2.0 0.00 0.00 0.00 74 1009.3
20260505064957 45 154 3.0 5.0 0.00 0.00 0.00 72 1009.4
20260505064454 46 206 3.0 4.0 0.00 0.00 0.00 69 1009.3
20260505063953 46 225 3.0 4.0 0.00 0.00 0.00 68 1009.1
20260505063449 45 157 0.0 1.0 0.00 0.00 0.00 71 1009.1
20260505062945 45 111 1.0 1.0 0.00 0.00 0.00 71 1009.2
20260505062442 45 123 1.0 3.0 0.00 0.00 0.00 70 1009.0
20260505061939 46 45 0.0 2.0 0.00 0.00 0.00 67 1009.2
20260505061437 46 7 1.0 3.0 0.00 0.00 0.00 67 1008.8
20260505060935 46 2 3.0 3.0 0.00 0.00 0.00 67 1009.0
20260505060432 46 48 2.0 4.0 0.00 0.00 0.00 68 1009.1
20260505055928 45 106 0.0 2.0 0.00 0.00 0.00 69 1008.8
20260505055424 45 340 0.0 2.0 0.00 0.00 0.00 70 1009.1
20260505054921 45 78 1.0 3.0 0.00 0.00 0.00 73 1009.0
20260505054418 46 56 0.0 2.0 0.00 0.00 0.00 69 1008.8
20260505053916 45 98 1.0 3.0 0.00 0.00 0.00 73 1009.0
20260505053413 46 0 0.0 0.0 0.00 0.00 0.00 70 1009.0
20260505052910 46 23 0.0 0.0 0.00 0.00 0.00 70 1008.8
20260505052407 46 351 2.0 2.0 0.00 0.00 0.00 70 1009.1
20260505051904 45 165 0.0 0.0 0.00 0.00 0.00 71 1008.8
20260505051401 45 165 0.0 0.0 0.00 0.00 0.00 71 1009.1
20260505050859 46 23 0.0 0.0 0.00 0.00 0.00 70 1008.7
20260505050357 46 276 2.0 2.0 0.00 0.00 0.00 70 1008.7
20260505041325 49 94 3.0 5.0 0.00 0.00 0.00 64 1008.5
20260505040821 50 126 5.0 5.0 0.00 0.00 0.00 64 1008.2
20260505040319 49 123 3.0 7.0 0.00 0.00 0.00 64 1008.4
20260505035816 48 125 3.0 5.0 0.00 0.00 0.00 67 1008.1
20260505035311 49 90 1.0 7.0 0.00 0.00 0.00 66 1008.2
20260505034809 50 110 4.0 8.0 0.00 0.00 0.00 63 1008.0
20260505034305 50 135 2.0 9.0 0.00 0.00 0.00 63 1008.1
20260505033803 50 11 2.0 5.0 0.00 0.00 0.00 64 1008.2
20260505033259 50 32 0.0 3.0 0.00 0.00 0.00 65 1008.1
20260505032757 50 8 0.0 5.0 0.00 0.00 0.00 64 1008.1
20260505032253 50 23 3.0 5.0 0.00 0.00 0.00 64 1008.0
20260505031750 50 17 3.0 7.0 0.00 0.00 0.00 64 1008.0
20260505031247 50 28 2.0 5.0 0.00 0.00 0.00 63 1007.7
20260505030744 50 84 7.0 7.0 0.00 0.00 0.00 64 1007.9
20260505030240 50 72 4.0 11.0 0.00 0.00 0.00 64 1007.9
20260505025735 51 103 5.0 10.0 0.00 0.00 0.00 63 1007.7
20260505025234 50 106 3.0 7.0 0.00 0.00 0.00 64 1007.7
20260505024732 50 90 2.0 9.0 0.00 0.00 0.00 64 1007.5
20260505024229 51 75 2.0 9.0 0.00 0.00 0.00 63 1007.6
20260505023726 51 99 7.0 8.0 0.00 0.00 0.00 63 1007.5
20260505023223 51 106 0.0 4.0 0.00 0.00 0.00 64 1007.7
20260505022721 51 63 0.0 5.0 0.00 0.00 0.00 63 1007.6
20260505022217 51 28 1.0 4.0 0.00 0.00 0.00 63 1007.7
20260505021714 51 45 2.0 8.0 0.00 0.00 0.00 62 1007.9
20260505021211 52 90 2.0 6.0 0.00 0.00 0.00 61 1007.9
20260505020707 52 73 0.0 7.0 0.00 0.00 0.00 60 1007.6
20260505020202 53 103 4.0 5.0 0.00 0.00 0.00 59 1007.6
20260505015700 53 82 2.0 4.0 0.00 0.00 0.00 58 1007.5
20260505015156 53 75 4.0 7.0 0.00 0.00 0.00 59 1007.5
20260505014654 54 88 5.0 5.0 0.00 0.00 0.00 58 1007.6
20260505014150 54 94 5.0 8.0 0.00 0.00 0.00 61 1007.6
20260505013648 55 88 4.0 5.0 0.00 0.00 0.00 56 1007.6
20260505013144 56 7 1.0 4.0 0.00 0.00 0.00 56 1007.6
20260505012643 57 23 2.0 4.0 0.00 0.00 0.00 56 1007.5
20260505012140 58 34 2.0 3.0 0.00 0.00 0.00 54 1007.6
20260505011635 57 60 1.0 5.0 0.00 0.00 0.00 55 1007.6
20260505011133 57 102 5.0 6.0 0.00 0.00 0.00 51 1007.6
20260505010628 58 111 4.0 6.0 0.00 0.00 0.00 52 1007.6
20260505010125 59 120 4.0 7.0 0.00 0.00 0.00 49 1007.7